[[{"header":{"parameterUnit":"m.s-1","parameterCategory":2,"la1":30.2991,"la2":30.254,"lo1":-89.0895,"lo2":-89.0444,"dy":0.0017,"dx":0.0017,"nx":28,"ny":28,"refTime":"2025-08-07T21:00:00:Z","depth":"0","parameterNumber":2,"parameterNumberName":"U-component_of_CURRENTS"},"data":[0,0,0,0,0,0,0,0,0,0,0,0,0,0,0,0,0,0,0,0,0,0,0,0,0,0,0,0,0,0,0,0,0,0,0,0,0,0,0,0,0,0,0,0,0,0,0,0,0,0,0,0,0,0,0,0,0,0,0.348,0.3481,0,0.3563,0.3563,0.3564,0.359,0.359,0.359,0.359,0.3608,0.3608,0.3609,0,0,0,0,0,0,0,0,0,0,0,0,0,0.3367,0.3369,0.3479,0.3481,0.3482,0.3562,0.3563,0.3564,0.359,0.359,0.359,0.359,0.3607,0.3608,0.3609,0,0,0,0,0,0,0,0,0,0,0,0,0,0.3428,0.3369,0.3479,0.3506,0.3509,0.3562,0.3563,0.3565,0.3591,0.359,0.359,0.3589,0.3607,0.3608,0.3609,0.3623,0,0,0.3612,0.3613,0,0,0,0,0,0,0,0,0.3424,0.3432,0.3501,0.3504,0.3508,0.3567,0.3531,0.3582,0.3591,0.3558,0.359,0.3589,0.3589,0.3592,0.3607,0.3624,0.3625,0.3613,0.3613,0.3614,0.3614,0,0,0,0,0,0,0,0.342,0.3429,0.3511,0.3502,0.3506,0.3522,0.3529,0.3541,0.3572,0.3561,0.3563,0.3575,0.359,0.3606,0.3607,0.3625,0.3612,0.3613,0.3614,0.3615,0.3738,0.374,0,0,0,0,0,0,0.3413,0.3425,0.3508,0.3513,0.3466,0.3524,0.3533,0.3547,0.3574,0.3578,0.3575,0.3576,0.3604,0.3606,0.3608,0.3688,0.3614,0.3615,0.3615,0.3735,0.3738,0.3741,0,0,0,0,0,0,0.341,0.3419,0.3505,0.3472,0.3484,0.3526,0.3542,0.3549,0.3569,0.3586,0.3589,0.3589,0.3604,0.3607,0.3647,0.3686,0.3615,0.3616,0.3732,0.3736,0.374,0.3807,0,0,0,0,0,0,0.3406,0.3418,0.3425,0.3471,0.3486,0.3546,0.3543,0.3551,0.3577,0.3579,0.3598,0.3599,0.3604,0.3645,0.3648,0.3686,0.3617,0.3729,0.3734,0.3738,0.3801,0.3813,0.3822,0,0,0,0,0,0.3402,0.3414,0.3425,0.3435,0.3495,0.3547,0.3557,0.3584,0.3578,0.3597,0.3621,0.3599,0.3679,0.3648,0.3651,0.369,0.3726,0.3732,0.3738,0.3797,0.3811,0.3822,0,0,0,0,0,0,0.3368,0.342,0.3432,0.3459,0.3504,0.3553,0.357,0.3586,0.362,0.362,0.3626,0.3631,0.3691,0.3681,0.3647,0.3744,0.3701,0.3708,0.3745,0.3758,0.3768,0.3778,0.3618,0,0,0,0,0,0.3364,0.3385,0.3442,0.3462,0.3485,0.3526,0.3549,0.3573,0.361,0.3624,0.3641,0.3669,0.3718,0.3727,0.3764,0.3799,0.383,0.383,0.3841,0.385,0.3863,0.3937,0.3955,0.3761,0.3761,0.376,0,0,0.3351,0.3386,0.3395,0.3456,0.3488,0.3543,0.3539,0.3581,0.3631,0.3619,0.368,0.3708,0.374,0.3803,0.3826,0.3794,0.3931,0.3857,0.3864,0.3873,0.3945,0.3964,0.3981,0.3765,0.3764,0.3763,0,0,0.3354,0.3374,0.3402,0.3448,0.3509,0.3547,0.356,0.3619,0.3648,0.371,0.3733,0.3785,0.383,0.3876,0.3902,0.3987,0.3994,0.3996,0.4042,0.4114,0.413,0.4145,0.4246,0.4269,0.3987,0.3988,0.3988,0,0.3339,0.3389,0.3418,0.3471,0.3513,0.3551,0.3606,0.3651,0.3717,0.3744,0.3737,0.3848,0.3873,0.3964,0.4012,0.4011,0.4061,0.3986,0.4127,0.4142,0.4156,0.4255,0.4279,0.3991,0.3991,0.3991,0.399,0,0.3376,0.3422,0.3443,0.3526,0.3574,0.3624,0.3696,0.3743,0.3775,0.3814,0.3901,0.3948,0.4004,0.4035,0.4056,0.417,0.4182,0.414,0.409,0.4179,0.4279,0.4303,0.3997,0.3996,0.3995,0.3994,0,0,0.3332,0.3447,0.3456,0.3508,0.3609,0.3654,0.3739,0.3825,0.3892,0.3933,0.4022,0.4101,0.4104,0.4138,0.4165,0.4239,0.4402,0.4239,0.4241,0.4332,0.4599,0.4543,0.4564,0.4382,0.4386,0.4389,0.4642,0,0.3357,0.3456,0.3512,0.3611,0.3671,0.374,0.3824,0.3902,0.3972,0.407,0.4105,0.4206,0.4148,0.421,0.4259,0.4392,0.4464,0.434,0.4505,0.4511,0.4443,0.4589,0.4389,0.4591,0.4666,0.467,0.4672,0,0.338,0.345,0.3544,0.3673,0.3705,0.3769,0.3905,0.3991,0.4121,0.4178,0.4234,0.4285,0.441,0.4355,0.454,0.4465,0.4535,0.4612,0.4622,0.4559,0.45,0.4508,0.4632,0.4493,0.4709,0.4706,0.4704,0,0.3343,0.3472,0.3544,0.3588,0.3737,0.3789,0.3873,0.4007,0.4084,0.4263,0.4335,0.4443,0.4533,0.4622,0.4719,0.4668,0.4936,0.4873,0.488,0.4878,0.4735,0.4712,0.4729,0.4998,0.4998,0.4997,0.4996,0,0.336,0.342,0.3529,0.3575,0.3679,0.378,0.3898,0.4011,0.4155,0.4258,0.4371,0.4473,0.4607,0.4738,0.4804,0.4922,0.4981,0.4939,0.4948,0.4756,0.4734,0.4623,0.4556,0.5007,0.5005,0.5003,0.5001,0,0.3334,0.3399,0.3491,0.3625,0.3666,0.3745,0.3893,0.3982,0.4129,0.4279,0.4343,0.4542,0.4737,0.4846,0.5063,0.5035,0.5033,0.5177,0.4959,0.4937,0.4788,0.4732,0.4661,0.4528,0.5268,0.5268,0.5269,0,0.3346,0.3383,0.3503,0.3559,0.3623,0.3732,0.3812,0.3959,0.4045,0.4298,0.4366,0.461,0.4743,0.5029,0.5092,0.523,0.5045,0.5104,0.495,0.4796,0.4743,0.4562,0.444,0.4819,0.4816,0.4813,0.4811,0,0.3382,0.3402,0.3481,0.356,0.3637,0.3715,0.3827,0.3873,0.4053,0.4169,0.4351,0.4497,0.4777,0.4852,0.5031,0.5067,0.4849,0.505,0.4938,0.445,0.4207,0.4074,0.4665,0.4785,0.4788,0.479,0.4791,0.4792,0.341,0.3444,0.3509,0.3573,0.3647,0.3676,0.368,0.3788,0.3876,0.401,0.4235,0.4377,0.4583,0.4816,0.4831,0.4714,0.4702,0.4575,0.4552,0.4408,0.4158,0.4713,0.4791,0.4794,0.4796,0.4798,0.4799,0,0.3438,0.3457,0.3521,0.3565,0.3574,0.3621,0.3668,0.363,0.3656,0.3857,0.3986,0.4149,0.4251,0.4369,0.4376,0.4236,0.4041,0.4112,0.3795,0.3723,0.4274,0.4127,0.4002,0.4002,0.4002,0.4002,0.4003,0.4003,0.3464,0.3488,0.3474,0.3458,0.347,0.3395,0.3367,0.3342,0.3412,0.3467,0.3534,0.369,0.3931,0.4069,0.3942,0.3844,0.3536,0.339,0.3398,0.3766,0.3804,0.3841,0.3686,0.3471,0.347,0.2666,0.266,0.2656]},{"header":{"parameterUnit":"m.s-1","parameterCategory":2,"la1":30.2991,"la2":30.254,"lo1":-89.0895,"lo2":-89.0444,"dy":0.0017,"dx":0.0017,"nx":28,"ny":28,"refTime":"2025-08-07T21:00:00:Z","depth":"0","parameterNumber":3,"parameterNumberName":"V-component_of_CURRENTS"},"data":[0,0,0,0,0,0,0,0,0,0,0,0,0,0,0,0,0,0,0,0,0,0,0,0,0,0,0,0,0,0,0,0,0,0,0,0,0,0,0,0,0,0,0,0,0,0,0,0,0,0,0,0,0,0,0,0,0,0,0.0192,0.0192,0,0.0117,0.0117,0.0116,0.0056,0.0055,0.0055,0.0054,-0.0071,-0.0074,-0.0077,0,0,0,0,0,0,0,0,0,0,0,0,0,0.0229,0.0229,0.0192,0.0192,0.0191,0.0118,0.0116,0.0115,0.0056,0.0055,0.0055,0.0054,-0.007,-0.0074,-0.0077,0,0,0,0,0,0,0,0,0,0,0,0,0,0.0188,0.0229,0.0193,0.0153,0.0149,0.0118,0.0116,0.0115,0.0056,0.0055,0.0054,0.0054,-0.0069,-0.0073,-0.0077,-0.0089,0,0,-0.0091,-0.0093,0,0,0,0,0,0,0,0,0.0191,0.0187,0.016,0.0156,0.0151,0.0096,0.0083,0.0045,0.0056,0.009,0.0054,0.0053,-0.0019,-0.0027,-0.004,-0.0095,-0.01,-0.0091,-0.0094,-0.0095,-0.0097,0,0,0,0,0,0,0,0.0194,0.019,0.0162,0.0159,0.0154,0.012,0.0114,0.0076,0.0039,0.0087,0.0083,0.0076,-0.0022,-0.0036,-0.0044,-0.0102,-0.0091,-0.0095,-0.0097,-0.0099,-0.0182,-0.0182,0,0,0,0,0,0,0.0209,0.0193,0.0164,0.0159,0.0171,0.0121,0.0113,0.0114,0.004,0.0029,0.0077,0.0074,-0.0028,-0.0039,-0.0049,-0.0061,-0.0095,-0.01,-0.0102,-0.0183,-0.0182,-0.0182,0,0,0,0,0,0,0.021,0.0208,0.0167,0.0175,0.0167,0.0121,0.0121,0.0113,0.0099,0.0034,0.0021,0.0073,-0.0029,-0.0043,-0.0078,-0.0067,-0.0101,-0.0105,-0.0183,-0.0183,-0.0182,-0.009,0,0,0,0,0,0,0.0212,0.0209,0.0214,0.0176,0.0168,0.0156,0.0122,0.0112,0.0097,0.0092,0.0026,0.0013,-0.0031,-0.0071,-0.0082,-0.0073,-0.0109,-0.0184,-0.0183,-0.0182,-0.0093,-0.0086,-0.008,0,0,0,0,0,0.0213,0.0227,0.0215,0.0212,0.0177,0.0157,0.0149,0.0112,0.0098,0.0097,0.0053,0.0016,-0.0075,-0.0074,-0.0087,-0.0079,-0.0184,-0.0183,-0.0182,-0.0096,-0.0088,-0.008,0,0,0,0,0,0,0.0247,0.0221,0.0207,0.0213,0.019,0.0147,0.0144,0.0121,0.0087,0.0082,0.002,0.0005,-0.0022,-0.0063,-0.0061,-0.0102,-0.0135,-0.0137,-0.0066,-0.0058,-0.0052,-0.0019,-0.0112,0,0,0,0,0,0.0259,0.0261,0.023,0.0234,0.0227,0.0188,0.0176,0.0153,0.0118,0.0102,0.0059,0.0011,-0.0029,-0.0052,-0.0093,-0.0114,-0.0128,-0.0119,-0.0112,-0.0106,-0.0089,-0.0098,-0.0089,-0.0179,-0.0179,-0.0179,0,0,0.0272,0.026,0.0259,0.0241,0.0221,0.0222,0.0179,0.0168,0.0169,0.0094,0.0082,0.0033,-0.0029,-0.0053,-0.0069,-0.0086,-0.0087,-0.0105,-0.0099,-0.0085,-0.0096,-0.0087,-0.0079,-0.0178,-0.0179,-0.0179,0,0,0.0306,0.0291,0.0306,0.0294,0.0273,0.025,0.0252,0.0217,0.02,0.018,0.0129,0.0089,0.003,-0.0011,-0.004,-0.0022,-0.0051,-0.0035,0.0024,0.0015,0.0023,0.003,0.0035,0.0042,-0.0032,-0.0032,-0.0032,0,0.0323,0.034,0.0307,0.0321,0.032,0.027,0.0289,0.0267,0.0225,0.0223,0.0187,0.0116,0.005,0.0032,0.003,-0.0006,-0.0004,0.0,0.0027,0.0033,0.0038,0.0042,0.0048,-0.0028,-0.0028,-0.0029,-0.0029,0,0.0367,0.0382,0.0391,0.0394,0.0387,0.0394,0.0364,0.0358,0.0329,0.0305,0.0283,0.0201,0.016,0.0128,0.0078,0.0085,0.0078,0.0039,0.0014,0.0053,0.0054,0.0059,-0.0021,-0.0023,-0.0024,-0.0025,0,0,0.0404,0.042,0.0425,0.045,0.0429,0.0437,0.0439,0.0436,0.0467,0.0401,0.0435,0.033,0.0291,0.0256,0.0191,0.0173,0.0193,0.0131,0.0128,0.0151,0.0201,0.0179,0.0181,0.017,0.0171,0.0172,0.0191,0,0.045,0.0506,0.0492,0.0545,0.0572,0.0538,0.0559,0.0548,0.053,0.0551,0.0465,0.0468,0.0339,0.0341,0.029,0.0236,0.0209,0.0193,0.0147,0.0146,0.0133,0.0187,0.0157,0.017,0.0196,0.0196,0.0197,0,0.0501,0.0535,0.0599,0.0647,0.0657,0.0683,0.0723,0.0736,0.0736,0.0728,0.0692,0.0639,0.0593,0.0491,0.039,0.0396,0.0301,0.0244,0.0242,0.0195,0.0133,0.013,0.0177,-0.0053,0.0204,0.0203,0.0203,0,0.0562,0.0611,0.0673,0.0685,0.0727,0.0761,0.0785,0.0798,0.0854,0.0864,0.0922,0.082,0.0831,0.0686,0.052,0.0475,0.0437,0.0353,0.024,0.0237,0.0188,0.018,0.0018,0.0282,0.0282,0.0282,0.0282,0,0.0626,0.0679,0.0718,0.0758,0.0866,0.0852,0.0966,0.0979,0.1036,0.1146,0.1032,0.1113,0.0889,0.0823,0.0618,0.0463,0.05,0.0275,0.0247,0.0219,0.0214,-0.001,-0.0137,0.0283,0.0283,0.0282,0.0282,0,0.0705,0.0717,0.0812,0.0875,0.0907,0.0996,0.1115,0.1205,0.1235,0.1384,0.1411,0.1375,0.1296,0.1056,0.0865,0.0636,0.0332,0.0385,0.0375,0.0344,-0.0004,-0.0124,-0.0282,-0.0375,0.0268,0.0268,0.0268,0,0.076,0.0809,0.092,0.1009,0.1055,0.1173,0.1272,0.1315,0.1424,0.156,0.166,0.1637,0.1646,0.1348,0.0952,0.0614,0.0365,0.0347,0.0222,-0.0005,-0.0159,-0.0247,-0.032,0.0198,0.0197,0.0196,0.0196,0,0.0879,0.0913,0.1001,0.1165,0.129,0.1429,0.1566,0.1678,0.176,0.1889,0.205,0.2079,0.1806,0.147,0.0994,0.0721,0.0177,0.0322,0.0086,-0.0219,-0.0323,-0.043,0.0172,0.0189,0.019,0.0191,0.0191,0.0191,0.0988,0.1079,0.1185,0.1343,0.1488,0.1659,0.179,0.1937,0.2122,0.2321,0.2335,0.2412,0.1893,0.1251,0.0875,0.0127,0.0148,-0.0125,-0.0243,-0.0304,-0.0427,0.0173,0.0152,0.0152,0.0153,0.0153,0.0153,0,0.1118,0.1201,0.1355,0.1536,0.1695,0.1741,0.1967,0.2104,0.2329,0.2509,0.2639,0.2397,0.1774,0.11,0.0115,-0.0363,-0.0549,-0.0632,-0.0794,-0.0836,-0.0304,-0.0346,-0.0474,-0.0473,-0.0473,-0.0473,-0.0473,-0.0473,0.1201,0.1346,0.1401,0.166,0.1791,0.2002,0.2133,0.235,0.2508,0.2696,0.271,0.2689,0.2093,0.0446,-0.067,-0.0914,-0.125,-0.1317,-0.1448,-0.1141,-0.1104,-0.1069,-0.114,-0.1432,-0.1433,-0.194,-0.1946,-0.195]}],[{"header":{"parameterUnit":"m.s-1","parameterCategory":2,"la1":30.2991,"la2":30.254,"lo1":-89.0895,"lo2":-89.0444,"dy":0.0017,"dx":0.0017,"nx":28,"ny":28,"refTime":"2025-08-07T21:00:00:Z","depth":"2","parameterNumber":2,"parameterNumberName":"U-component_of_CURRENTS"},"data":[0,0,0,0,0,0,0,0,0,0,0,0,0,0,0,0,0,0,0,0,0,0,0,0,0,0,0,0,0,0,0,0,0,0,0,0,0,0,0,0,0,0,0,0,0,0,0,0,0,0,0,0,0,0,0,0,0,0,0.2807,0.2807,0,0.2862,0.2863,0.2863,0.2883,0.2882,0.2882,0.2882,0.2917,0.2918,0.2919,0,0,0,0,0,0,0,0,0,0,0,0,0,0.269,0.2692,0.2807,0.2807,0.2808,0.2862,0.2863,0.2863,0.2883,0.2882,0.2882,0.2882,0.2917,0.2918,0.2919,0,0,0,0,0,0,0,0,0,0,0,0,0,0.2741,0.2693,0.2806,0.2826,0.2828,0.2862,0.2863,0.2864,0.2883,0.2882,0.2882,0.2882,0.2916,0.2918,0.2919,0.2931,0,0,0.2924,0.2925,0,0,0,0,0,0,0,0,0.2738,0.2745,0.2822,0.2824,0.2827,0.2867,0.2835,0.2886,0.2883,0.286,0.2882,0.2882,0.29,0.2902,0.2911,0.2932,0.2934,0.2924,0.2925,0.2926,0.2926,0,0,0,0,0,0,0,0.2735,0.2743,0.2827,0.2823,0.2826,0.2822,0.283,0.2844,0.2878,0.2862,0.2864,0.2873,0.2901,0.291,0.2912,0.2934,0.2924,0.2925,0.2926,0.2927,0.3017,0.3018,0,0,0,0,0,0,0.2733,0.274,0.2825,0.2829,0.2783,0.2825,0.2833,0.2853,0.2878,0.2883,0.2873,0.2874,0.2907,0.291,0.2913,0.2985,0.2926,0.2927,0.2928,0.3015,0.3017,0.3019,0,0,0,0,0,0,0.2731,0.2741,0.2823,0.2786,0.2796,0.2827,0.2849,0.2854,0.2878,0.2887,0.2891,0.2894,0.2907,0.2911,0.2939,0.2984,0.2928,0.2929,0.3014,0.3016,0.3018,0.3092,0,0,0,0,0,0,0.2727,0.274,0.2758,0.2786,0.2799,0.2852,0.285,0.2855,0.2884,0.2885,0.2906,0.2909,0.2907,0.2937,0.2941,0.2985,0.293,0.3012,0.3015,0.3017,0.3088,0.3097,0.3104,0,0,0,0,0,0.2723,0.274,0.2758,0.2769,0.2821,0.2853,0.2859,0.2878,0.2885,0.2899,0.2914,0.2909,0.2958,0.2939,0.2943,0.2989,0.301,0.3014,0.3017,0.3084,0.3095,0.3104,0,0,0,0,0,0,0.2698,0.2745,0.2765,0.2797,0.283,0.2857,0.2873,0.2889,0.2913,0.2917,0.2923,0.2927,0.2982,0.2966,0.2945,0.3023,0.2986,0.299,0.3035,0.3045,0.3054,0.3056,0.2931,0,0,0,0,0,0.2703,0.273,0.2773,0.28,0.282,0.2852,0.287,0.2886,0.2909,0.292,0.2939,0.2959,0.2997,0.3003,0.3032,0.3058,0.3085,0.3091,0.31,0.3107,0.3112,0.3199,0.3216,0.303,0.303,0.303,0,0,0.2701,0.2731,0.2746,0.2797,0.2825,0.2862,0.2863,0.2895,0.2934,0.292,0.2976,0.2999,0.3016,0.3064,0.3084,0.3052,0.3176,0.3111,0.3117,0.3118,0.3205,0.3223,0.3239,0.3032,0.3032,0.3031,0,0,0.2705,0.2741,0.2766,0.2802,0.285,0.2871,0.2886,0.2929,0.2959,0.3006,0.3025,0.3067,0.3101,0.3131,0.3148,0.3214,0.3232,0.3224,0.3251,0.3337,0.3353,0.3368,0.3435,0.3456,0.3209,0.3209,0.3209,0,0.2706,0.2744,0.2777,0.2817,0.2848,0.2881,0.2918,0.2958,0.3006,0.3036,0.3031,0.3136,0.314,0.3223,0.3236,0.3236,0.3279,0.3214,0.335,0.3365,0.3378,0.3444,0.3465,0.3213,0.3212,0.3212,0.3211,0,0.2735,0.277,0.2788,0.2853,0.2892,0.2924,0.2986,0.3034,0.3068,0.31,0.3198,0.3227,0.3286,0.3298,0.3278,0.3384,0.3384,0.3369,0.3327,0.3402,0.3466,0.3487,0.3218,0.3217,0.3216,0.3215,0,0,0.2719,0.2794,0.28,0.2841,0.2913,0.295,0.3025,0.3095,0.3174,0.3215,0.3312,0.3362,0.3387,0.3408,0.3423,0.3467,0.359,0.3446,0.3449,0.3518,0.3782,0.3651,0.3661,0.3607,0.3611,0.3614,0.3791,0,0.2731,0.2798,0.2833,0.2904,0.2947,0.3009,0.3083,0.3156,0.3234,0.3337,0.338,0.3482,0.3432,0.3491,0.3529,0.36,0.3647,0.3543,0.3694,0.3698,0.3577,0.3681,0.3396,0.3518,0.3811,0.3814,0.3817,0,0.2742,0.2791,0.2854,0.2947,0.2975,0.3041,0.3184,0.3243,0.3378,0.3451,0.3547,0.3599,0.3698,0.3645,0.3793,0.3735,0.3756,0.3784,0.3792,0.3655,0.3605,0.3488,0.3545,0.3852,0.3849,0.3846,0.3844,0,0.2715,0.2799,0.2848,0.2884,0.3,0.3072,0.3142,0.3283,0.3361,0.3546,0.3638,0.3761,0.3852,0.3916,0.3941,0.3899,0.4086,0.4046,0.395,0.3941,0.3717,0.3681,0.4142,0.4142,0.4141,0.4141,0.414,0,0.271,0.2753,0.2858,0.2899,0.2999,0.3081,0.3207,0.3322,0.3479,0.3567,0.3698,0.3811,0.3923,0.4017,0.4023,0.4054,0.4165,0.3981,0.3988,0.3732,0.3697,0.3987,0.3967,0.4147,0.4146,0.4145,0.4143,0,0.2683,0.2731,0.2803,0.2937,0.299,0.3069,0.3232,0.3324,0.3492,0.3632,0.3695,0.3891,0.4024,0.4104,0.4227,0.4158,0.4205,0.4172,0.385,0.3813,0.3987,0.3969,0.4127,0.4124,0.4122,0.4119,0.4118,0,0.268,0.2705,0.2827,0.2884,0.2963,0.3082,0.316,0.3322,0.3414,0.3649,0.3707,0.3905,0.3967,0.412,0.4099,0.4134,0.4184,0.3848,0.3695,0.4001,0.3992,0.3977,0.3962,0.3448,0.3441,0.3435,0.343,0,0.2692,0.2723,0.2783,0.286,0.2959,0.3025,0.3156,0.3232,0.3387,0.3509,0.3633,0.3705,0.3862,0.3765,0.3823,0.3787,0.3824,0.3727,0.4185,0.3468,0.3367,0.3355,0.3363,0.3379,0.3384,0.3388,0.339,0.3392,0.2695,0.271,0.2755,0.2819,0.2909,0.2942,0.2961,0.3066,0.3133,0.3238,0.3395,0.3404,0.3481,0.3415,0.3343,0.3317,0.3554,0.3391,0.3407,0.343,0.3292,0.3189,0.3143,0.3146,0.315,0.3152,0.3155,0,0.2632,0.2661,0.2716,0.2733,0.2733,0.2833,0.2919,0.2854,0.2858,0.299,0.3024,0.2801,0.2779,0.2882,0.2767,0.2766,0.2728,0.2658,0.2586,0.2641,0.269,0.251,0.2156,0.2152,0.2149,0.2146,0,0,0.2596,0.2574,0.2558,0.2521,0.256,0.249,0.2509,0.2472,0.2513,0.2434,0.2443,0.2628,0.2782,0.2415,0.2394,0.2258,0.2422,0.2175,0.2987,0.2959,0.3002,0.3136,0.2924,0,0,0,0,0]},{"header":{"parameterUnit":"m.s-1","parameterCategory":2,"la1":30.2991,"la2":30.254,"lo1":-89.0895,"lo2":-89.0444,"dy":0.0017,"dx":0.0017,"nx":28,"ny":28,"refTime":"2025-08-07T21:00:00:Z","depth":"2","parameterNumber":3,"parameterNumberName":"V-component_of_CURRENTS"},"data":[0,0,0,0,0,0,0,0,0,0,0,0,0,0,0,0,0,0,0,0,0,0,0,0,0,0,0,0,0,0,0,0,0,0,0,0,0,0,0,0,0,0,0,0,0,0,0,0,0,0,0,0,0,0,0,0,0,0,-0.0022,-0.0022,0,-0.0087,-0.0088,-0.0089,-0.0136,-0.0136,-0.0136,-0.0137,-0.0241,-0.0243,-0.0246,0,0,0,0,0,0,0,0,0,0,0,0,0,0.0011,0.0011,-0.0022,-0.0023,-0.0023,-0.0087,-0.0088,-0.0089,-0.0136,-0.0136,-0.0137,-0.0137,-0.024,-0.0243,-0.0246,0,0,0,0,0,0,0,0,0,0,0,0,0,-0.0024,0.0011,-0.0022,-0.0054,-0.0058,-0.0087,-0.0088,-0.0089,-0.0136,-0.0136,-0.0137,-0.0137,-0.0239,-0.0243,-0.0247,-0.0259,0,0,-0.0258,-0.0259,0,0,0,0,0,0,0,0,-0.0022,-0.0025,-0.0048,-0.0052,-0.0056,-0.0104,-0.0115,-0.0148,-0.0135,-0.0106,-0.0137,-0.0137,-0.0198,-0.0205,-0.0216,-0.0264,-0.0268,-0.0258,-0.026,-0.0262,-0.0263,0,0,0,0,0,0,0,-0.0019,-0.0023,-0.0048,-0.0049,-0.0054,-0.0083,-0.0088,-0.0121,-0.0149,-0.0109,-0.0112,-0.0119,-0.0201,-0.0213,-0.0219,-0.027,-0.0258,-0.0261,-0.0264,-0.0265,-0.0333,-0.0333,0,0,0,0,0,0,-0.0007,-0.002,-0.0046,-0.005,-0.0039,-0.0083,-0.0089,-0.0088,-0.0148,-0.0158,-0.0118,-0.0121,-0.0206,-0.0215,-0.0223,-0.0229,-0.0262,-0.0265,-0.0267,-0.0334,-0.0333,-0.0333,0,0,0,0,0,0,-0.0006,-0.0008,-0.0043,-0.0037,-0.0043,-0.0082,-0.0082,-0.0089,-0.0098,-0.0155,-0.0165,-0.012,-0.0207,-0.0218,-0.0245,-0.0234,-0.0267,-0.027,-0.0334,-0.0333,-0.0333,-0.0249,0,0,0,0,0,0,-0.0004,-0.0007,-0.0002,-0.0035,-0.0043,-0.0051,-0.0081,-0.009,-0.0102,-0.0105,-0.016,-0.017,-0.0208,-0.0239,-0.0249,-0.024,-0.0273,-0.0335,-0.0334,-0.0333,-0.0252,-0.0245,-0.0239,0,0,0,0,0,-0.0003,0.0011,-0.0001,-0.0004,-0.0034,-0.005,-0.0056,-0.0087,-0.0101,-0.0098,-0.0135,-0.0168,-0.0241,-0.0241,-0.0253,-0.0245,-0.0335,-0.0334,-0.0333,-0.0255,-0.0246,-0.024,0,0,0,0,0,0,0.003,0.0007,-0.0007,-0.0001,-0.002,-0.0057,-0.0058,-0.0079,-0.0106,-0.0109,-0.0163,-0.0176,-0.0197,-0.0231,-0.023,-0.0263,-0.0294,-0.0295,-0.023,-0.0223,-0.0217,-0.019,-0.0276,0,0,0,0,0,0.004,0.0043,0.0015,0.002,0.0014,-0.002,-0.003,-0.0049,-0.0078,-0.009,-0.0128,-0.0169,-0.0203,-0.022,-0.0257,-0.0271,-0.0301,-0.0274,-0.0268,-0.0262,-0.0248,-0.0283,-0.0278,-0.033,-0.033,-0.033,0,0,0.0052,0.0041,0.0042,0.0027,0.0009,0.0013,-0.0027,-0.0034,-0.0029,-0.0098,-0.0103,-0.015,-0.0203,-0.0221,-0.0233,-0.0247,-0.0264,-0.0261,-0.0256,-0.0245,-0.0281,-0.0276,-0.0272,-0.0329,-0.0329,-0.0329,0,0,0.0086,0.0072,0.0088,0.0078,0.006,0.004,0.0043,0.0013,0.0001,-0.0014,-0.0061,-0.0096,-0.0146,-0.0179,-0.0203,-0.0185,-0.0232,-0.0199,-0.0143,-0.0176,-0.0172,-0.0169,-0.0199,-0.0199,-0.0193,-0.0193,-0.0192,0,0.0102,0.0119,0.009,0.0104,0.0105,0.006,0.0082,0.0064,0.0029,0.0027,-0.0004,-0.0074,-0.0125,-0.0141,-0.0139,-0.017,-0.0194,-0.0165,-0.0167,-0.0164,-0.0162,-0.0195,-0.0196,-0.0188,-0.0189,-0.0189,-0.019,0,0.0145,0.0159,0.0169,0.0174,0.0172,0.0182,0.0158,0.0155,0.013,0.0107,0.0083,0.0012,-0.0026,-0.0054,-0.0094,-0.0101,-0.0124,-0.0156,-0.0181,-0.0151,-0.0188,-0.0191,-0.0182,-0.0184,-0.0185,-0.0186,0,0,0.0182,0.0198,0.0202,0.0226,0.0213,0.0223,0.0233,0.0234,0.0257,0.0199,0.0217,0.0135,0.0094,0.0064,0.0006,-0.0029,-0.0048,-0.0077,-0.0081,-0.0098,-0.0115,-0.0158,-0.0166,-0.0076,-0.0076,-0.0076,-0.0146,0,0.0226,0.0278,0.027,0.0321,0.0349,0.0323,0.0343,0.0336,0.0319,0.0324,0.0245,0.023,0.0141,0.0128,0.0077,-0.0007,-0.005,-0.0026,-0.0149,-0.0152,-0.0187,-0.0169,-0.0137,-0.0198,-0.0149,-0.0149,-0.0149,0,0.0273,0.0305,0.0366,0.0413,0.0423,0.0446,0.0483,0.0497,0.0482,0.0472,0.0434,0.0369,0.0312,0.023,0.0097,0.012,0.0011,-0.0068,-0.0073,-0.0142,-0.02,-0.0222,-0.0206,-0.0154,-0.0154,-0.0154,-0.0153,0,0.0323,0.0375,0.0432,0.0445,0.0483,0.0514,0.0536,0.0542,0.0586,0.0572,0.0597,0.0498,0.0472,0.0326,0.0143,0.0128,-0.0006,-0.005,-0.0197,-0.0201,-0.0213,-0.0218,-0.0153,-0.0153,-0.0153,-0.0152,-0.0152,0,0.0376,0.0423,0.0466,0.0498,0.0585,0.0583,0.0669,0.068,0.0717,0.0779,0.0682,0.0703,0.0495,0.0383,0.0198,0.0,0.003,-0.0179,-0.0219,-0.0184,-0.0186,-0.0181,-0.0183,-0.0155,-0.0154,-0.0154,-0.0153,0,0.0422,0.0444,0.0522,0.0583,0.0612,0.0677,0.0774,0.0835,0.0859,0.0941,0.0945,0.0872,0.0729,0.0502,0.0272,0.0088,-0.0111,-0.02,-0.0146,-0.0179,-0.0297,-0.0294,-0.035,-0.0352,-0.0354,-0.0356,-0.0357,0,0.0449,0.0488,0.059,0.0649,0.0684,0.0777,0.0844,0.0904,0.0985,0.1041,0.1095,0.0988,0.0909,0.0563,0.0236,-0.0084,-0.0128,-0.0277,-0.0314,-0.0282,-0.0316,-0.031,-0.0305,-0.0296,-0.0297,-0.0297,-0.0298,0,0.05,0.0533,0.0603,0.0713,0.0803,0.09,0.1009,0.1118,0.1187,0.1265,0.1313,0.1249,0.0925,0.0611,0.0177,-0.0044,-0.0222,-0.0299,-0.0268,-0.0255,-0.0238,-0.0269,-0.0265,-0.0302,-0.0302,-0.0302,-0.0301,-0.0301,0.0536,0.0595,0.0672,0.0785,0.0881,0.0997,0.1108,0.1239,0.1383,0.1507,0.1441,0.1371,0.1014,0.0469,0.0103,-0.0262,-0.0259,-0.0397,-0.0392,-0.0387,-0.0372,-0.036,-0.0444,-0.0444,-0.0445,-0.0445,-0.0445,0,0.0554,0.0621,0.073,0.0856,0.0955,0.0995,0.1191,0.13,0.1492,0.1591,0.1609,0.126,0.0912,0.0528,-0.0017,-0.0369,-0.0383,-0.047,-0.0404,-0.0398,-0.0393,-0.0376,-0.045,-0.0451,-0.0451,-0.0452,0,0,0.0566,0.0648,0.0711,0.0873,0.097,0.1107,0.1232,0.141,0.1535,0.1629,0.1625,0.1509,0.1036,0.0644,0.0179,-0.0123,-0.0179,-0.0188,-0.0151,-0.0013,-0.0003,-0.0324,-0.0288,0,0,0,0,0]}],[{"header":{"parameterUnit":"m.s-1","parameterCategory":2,"la1":30.2991,"la2":30.254,"lo1":-89.0895,"lo2":-89.0444,"dy":0.0017,"dx":0.0017,"nx":28,"ny":28,"refTime":"2025-08-07T21:00:00:Z","depth":"4","parameterNumber":2,"parameterNumberName":"U-component_of_CURRENTS"},"data":[0,0,0,0,0,0,0,0,0,0,0,0,0,0,0,0,0,0,0,0,0,0,0,0,0,0,0,0,0,0,0,0,0,0,0,0,0,0,0,0,0,0,0,0,0,0,0,0,0,0,0,0,0,0,0,0,0,0,0.1641,0.1642,0,0.1696,0.1696,0.1696,0.1747,0.1748,0.1749,0.175,0.182,0.1821,0.1822,0,0,0,0,0,0,0,0,0,0,0,0,0,0.1566,0.1567,0.1641,0.1642,0.1643,0.1695,0.1696,0.1697,0.1747,0.1748,0.1749,0.175,0.1819,0.1821,0.1822,0,0,0,0,0,0,0,0,0,0,0,0,0,0.1605,0.1567,0.1641,0.1676,0.168,0.1695,0.1696,0.1697,0.1747,0.1748,0.1749,0.1751,0.1819,0.1821,0.1822,0.1807,0,0,0.1827,0.1828,0,0,0,0,0,0,0,0,0.1603,0.1607,0.167,0.1674,0.1678,0.1718,0.1695,0.1735,0.1747,0.1719,0.175,0.1751,0.1788,0.1792,0.1796,0.181,0.1813,0.1827,0.1828,0.1829,0.1829,0,0,0,0,0,0,0,0.16,0.1605,0.166,0.1671,0.1676,0.1684,0.1691,0.1703,0.1744,0.1722,0.1726,0.1735,0.179,0.1794,0.1798,0.1814,0.1827,0.1829,0.183,0.183,0.1918,0.192,0,0,0,0,0,0,0.1597,0.1603,0.1659,0.1662,0.1645,0.1685,0.1692,0.1702,0.1744,0.1752,0.1734,0.1737,0.1791,0.1796,0.1801,0.1877,0.1829,0.183,0.1831,0.1917,0.1919,0.192,0,0,0,0,0,0,0.1595,0.1602,0.1656,0.1635,0.1643,0.1685,0.1695,0.1702,0.1744,0.1754,0.1762,0.1773,0.1792,0.1799,0.1842,0.1877,0.1831,0.1833,0.1916,0.1918,0.192,0.1971,0,0,0,0,0,0,0.1593,0.1601,0.1624,0.1635,0.1645,0.1686,0.1695,0.1703,0.1746,0.1752,0.1789,0.1794,0.1794,0.184,0.1844,0.1878,0.1834,0.1914,0.1916,0.1919,0.1968,0.1975,0.1981,0,0,0,0,0,0.159,0.1606,0.1625,0.1633,0.167,0.1687,0.1693,0.1724,0.1748,0.1767,0.1796,0.1795,0.1859,0.1842,0.1847,0.1882,0.1913,0.1916,0.1919,0.1965,0.1973,0.198,0,0,0,0,0,0,0.1582,0.1613,0.1634,0.166,0.1685,0.1697,0.1723,0.1744,0.1781,0.1801,0.181,0.1817,0.1866,0.1867,0.1848,0.1915,0.1887,0.1891,0.192,0.1929,0.1935,0.1945,0.1835,0,0,0,0,0,0.1592,0.1618,0.1643,0.1668,0.1683,0.1712,0.1732,0.1754,0.178,0.18,0.1826,0.1854,0.1874,0.1898,0.1911,0.195,0.1967,0.1977,0.1983,0.1989,0.2,0.2062,0.2076,0.193,0.193,0.193,0,0,0.1598,0.1618,0.1636,0.167,0.1694,0.1713,0.1727,0.1766,0.1794,0.18,0.1858,0.1877,0.1888,0.1929,0.1952,0.1942,0.2038,0.1993,0.1997,0.2006,0.2067,0.2081,0.2094,0.1932,0.1932,0.1932,0,0,0.1605,0.1641,0.1663,0.1684,0.1728,0.1741,0.176,0.1797,0.1833,0.1878,0.1892,0.1939,0.1969,0.1991,0.2001,0.2054,0.2065,0.2061,0.2111,0.2171,0.2184,0.2195,0.223,0.2244,0.2071,0.2071,0.2071,0,0.1615,0.1639,0.1672,0.1692,0.1712,0.1756,0.1776,0.1812,0.1863,0.19,0.1906,0.1983,0.1997,0.2051,0.2072,0.207,0.21,0.2079,0.2181,0.2192,0.2203,0.2236,0.2251,0.2074,0.2074,0.2073,0.2073,0,0.1625,0.1657,0.167,0.171,0.1736,0.1763,0.1807,0.1856,0.1903,0.1942,0.2022,0.2048,0.2106,0.211,0.2108,0.2194,0.2188,0.2176,0.2161,0.2221,0.2252,0.2266,0.2078,0.2077,0.2076,0.2075,0,0,0.1607,0.1666,0.1674,0.1698,0.175,0.1768,0.1827,0.1888,0.1951,0.201,0.2097,0.2134,0.2184,0.22,0.2218,0.2264,0.2362,0.2263,0.2265,0.2299,0.2492,0.2328,0.2328,0.2378,0.2381,0.2383,0.248,0,0.1606,0.1639,0.1673,0.1713,0.1731,0.179,0.1843,0.1913,0.1983,0.2082,0.2145,0.2233,0.221,0.2269,0.2312,0.2356,0.2405,0.2336,0.2428,0.2431,0.2279,0.2341,0.2393,0.2491,0.2494,0.2497,0.2499,0,0.1596,0.162,0.1653,0.1723,0.1741,0.1779,0.1878,0.1944,0.2082,0.2146,0.2248,0.2317,0.2421,0.2396,0.25,0.2464,0.2492,0.2505,0.2509,0.235,0.2294,0.2421,0.2525,0.2523,0.2521,0.2519,0.2518,0,0.1548,0.1607,0.1634,0.1652,0.1735,0.1781,0.185,0.197,0.2055,0.2226,0.2304,0.2424,0.2522,0.257,0.2613,0.2585,0.2711,0.2674,0.2544,0.2533,0.2628,0.2615,0.2752,0.2752,0.2752,0.2752,0.2752,0,0.1513,0.1543,0.1622,0.1634,0.1695,0.1776,0.188,0.1965,0.2126,0.2227,0.2361,0.244,0.2578,0.2663,0.2669,0.2649,0.2765,0.2565,0.2554,0.2645,0.2633,0.2638,0.2624,0.2755,0.2755,0.2754,0.2753,0,0.1452,0.1505,0.1543,0.1633,0.1672,0.1728,0.1895,0.1961,0.2128,0.2269,0.2341,0.2513,0.2607,0.2694,0.2793,0.271,0.2712,0.2678,0.278,0.2771,0.2479,0.2467,0.254,0.2535,0.2531,0.2528,0.2525,0,0.1418,0.1422,0.1526,0.1549,0.1594,0.1701,0.176,0.1944,0.202,0.2266,0.2308,0.2495,0.2581,0.2583,0.2677,0.2697,0.2658,0.2646,0.2543,0.2479,0.2462,0.2456,0.2449,0.2518,0.2517,0.2516,0.2515,0,0.1314,0.1365,0.1401,0.1468,0.1523,0.1589,0.1703,0.1758,0.1967,0.214,0.2238,0.2315,0.242,0.2484,0.2537,0.2531,0.2643,0.2602,0.2609,0.2513,0.2454,0.2439,0.2437,0.2501,0.2503,0.2504,0.2505,0,0.1241,0.1247,0.1299,0.1357,0.1419,0.1437,0.1528,0.1617,0.1736,0.2014,0.204,0.2216,0.2396,0.2399,0.2429,0.2435,0.2385,0.2292,0.2314,0.2331,0.2215,0.2106,0.205,0,0,0,0,0,0.1139,0.1135,0.117,0.1217,0.1278,0.1319,0.1452,0.1551,0.177,0.1784,0.1922,0.2007,0.2093,0.218,0.2142,0.2316,0.2378,0.2259,0.2277,0.2422,0.2439,0.232,0,0,0,0,0,0,0.1071,0.1086,0.1121,0.1078,0.1092,0.1138,0.1217,0.1361,0.1398,0.1634,0.169,0.1873,0.1978,0.2091,0.2098,0.2125,0.2092,0.2383,0.2377,0.2413,0.2428,0.2441,0.2325,0,0,0,0,0]},{"header":{"parameterUnit":"m.s-1","parameterCategory":2,"la1":30.2991,"la2":30.254,"lo1":-89.0895,"lo2":-89.0444,"dy":0.0017,"dx":0.0017,"nx":28,"ny":28,"refTime":"2025-08-07T21:00:00:Z","depth":"4","parameterNumber":3,"parameterNumberName":"V-component_of_CURRENTS"},"data":[0,0,0,0,0,0,0,0,0,0,0,0,0,0,0,0,0,0,0,0,0,0,0,0,0,0,0,0,0,0,0,0,0,0,0,0,0,0,0,0,0,0,0,0,0,0,0,0,0,0,0,0,0,0,0,0,0,0,-0.0014,-0.0015,0,-0.0055,-0.0056,-0.0056,-0.0088,-0.0088,-0.0089,-0.0089,-0.0153,-0.0155,-0.0156,0,0,0,0,0,0,0,0,0,0,0,0,0,0.0003,0.0003,-0.0014,-0.0015,-0.0015,-0.0055,-0.0056,-0.0057,-0.0088,-0.0088,-0.0089,-0.0089,-0.0153,-0.0154,-0.0156,0,0,0,0,0,0,0,0,0,0,0,0,0,-0.0018,0.0003,-0.0014,-0.0036,-0.0038,-0.0055,-0.0056,-0.0057,-0.0088,-0.0088,-0.0089,-0.0089,-0.0152,-0.0154,-0.0156,-0.0161,0,0,-0.0163,-0.0164,0,0,0,0,0,0,0,0,-0.0017,-0.0019,-0.0032,-0.0034,-0.0037,-0.0067,-0.0074,-0.0093,-0.0088,-0.0069,-0.0089,-0.0089,-0.0126,-0.013,-0.0137,-0.0164,-0.0167,-0.0163,-0.0165,-0.0166,-0.0166,0,0,0,0,0,0,0,-0.0015,-0.0017,-0.0031,-0.0032,-0.0035,-0.0055,-0.0058,-0.0078,-0.0095,-0.0071,-0.0073,-0.0077,-0.0128,-0.0135,-0.0139,-0.0168,-0.0163,-0.0165,-0.0166,-0.0167,-0.0206,-0.0205,0,0,0,0,0,0,-0.0008,-0.0016,-0.0029,-0.0032,-0.0028,-0.0055,-0.0059,-0.0057,-0.0095,-0.01,-0.0077,-0.0079,-0.0131,-0.0136,-0.0141,-0.0136,-0.0166,-0.0168,-0.0169,-0.0206,-0.0206,-0.0205,0,0,0,0,0,0,-0.0007,-0.0008,-0.0028,-0.0025,-0.0029,-0.0055,-0.0053,-0.0057,-0.0064,-0.0099,-0.0106,-0.0079,-0.0132,-0.0138,-0.0153,-0.0139,-0.0169,-0.0171,-0.0206,-0.0206,-0.0205,-0.0133,0,0,0,0,0,0,-0.0006,-0.0008,-0.0003,-0.0024,-0.0029,-0.0029,-0.0052,-0.0058,-0.0066,-0.0069,-0.0103,-0.0109,-0.0132,-0.0149,-0.0155,-0.0142,-0.0172,-0.0207,-0.0206,-0.0206,-0.0136,-0.013,-0.0125,0,0,0,0,0,-0.0005,0.0005,-0.0003,-0.0005,-0.0022,-0.0028,-0.0032,-0.0053,-0.0066,-0.0062,-0.0086,-0.0108,-0.015,-0.0151,-0.0158,-0.0145,-0.0207,-0.0206,-0.0206,-0.0138,-0.0131,-0.0126,0,0,0,0,0,0,0.0015,0.0002,-0.0007,-0.0001,-0.0011,-0.0034,-0.0034,-0.0048,-0.0064,-0.0068,-0.0103,-0.0111,-0.012,-0.0144,-0.0144,-0.0156,-0.0183,-0.0184,-0.0129,-0.0123,-0.0118,-0.0107,-0.0174,0,0,0,0,0,0.0022,0.0026,0.001,0.0016,0.0012,-0.001,-0.0016,-0.0028,-0.0046,-0.0054,-0.0078,-0.0104,-0.0122,-0.0131,-0.0154,-0.0158,-0.0199,-0.0156,-0.0151,-0.0146,-0.0143,-0.0193,-0.0192,-0.0203,-0.0203,-0.0203,0,0,0.0031,0.0025,0.0026,0.002,0.0009,0.0017,-0.0015,-0.0018,-0.0008,-0.0058,-0.0056,-0.0088,-0.0121,-0.0125,-0.0132,-0.0143,-0.0166,-0.0145,-0.0141,-0.014,-0.0193,-0.0192,-0.0191,-0.0203,-0.0203,-0.0203,0,0,0.0056,0.0046,0.006,0.0058,0.0048,0.0037,0.0039,0.002,0.0014,0.0009,-0.0024,-0.0046,-0.0073,-0.0092,-0.0105,-0.0086,-0.0139,-0.0094,-0.0055,-0.0103,-0.0103,-0.0103,-0.0156,-0.0161,-0.0088,-0.0088,-0.0088,0,0.0067,0.0083,0.0063,0.0079,0.0084,0.0051,0.0073,0.0063,0.0043,0.004,0.0019,-0.0028,-0.0056,-0.0063,-0.0055,-0.0073,-0.0114,-0.0072,-0.0096,-0.0097,-0.0098,-0.0153,-0.016,-0.0085,-0.0085,-0.0085,-0.0086,0,0.0103,0.0118,0.0126,0.0138,0.0142,0.0153,0.0141,0.014,0.0123,0.0105,0.0088,0.0043,0.0015,0.0003,-0.0018,-0.0034,-0.0065,-0.0085,-0.0109,-0.0093,-0.0152,-0.016,-0.008,-0.0081,-0.0082,-0.0083,0,0,0.0125,0.0148,0.0152,0.0172,0.0175,0.0185,0.0202,0.0206,0.0213,0.0178,0.0178,0.014,0.0102,0.0084,0.0047,0.0007,-0.0037,-0.0036,-0.004,-0.0083,-0.0153,-0.0145,-0.0154,-0.0063,-0.0064,-0.0065,-0.0191,0,0.016,0.0206,0.0209,0.0255,0.0278,0.0267,0.0289,0.0286,0.0266,0.0255,0.0201,0.0182,0.0138,0.0123,0.0077,-0.001,-0.0056,-0.0002,-0.0168,-0.0172,-0.0163,-0.0162,-0.0068,-0.0198,-0.02,-0.0201,-0.0202,0,0.0195,0.0223,0.0276,0.032,0.033,0.0353,0.0377,0.0393,0.0368,0.0349,0.0311,0.026,0.0205,0.016,0.0018,0.0053,-0.004,-0.0114,-0.0122,-0.0144,-0.018,-0.0219,-0.0218,-0.0217,-0.0216,-0.0215,-0.0214,0,0.022,0.0271,0.0318,0.0332,0.0373,0.0398,0.0421,0.0418,0.044,0.0405,0.0396,0.0315,0.0271,0.015,0.0004,0.0005,-0.0165,-0.0185,-0.027,-0.0272,-0.0274,-0.0272,-0.029,-0.029,-0.029,-0.0289,-0.0289,0,0.0253,0.0291,0.0334,0.036,0.0423,0.0438,0.049,0.0495,0.0503,0.0524,0.0446,0.0426,0.0264,0.0151,0.0015,-0.015,-0.0161,-0.0265,-0.0301,-0.0241,-0.0234,-0.028,-0.0277,-0.0294,-0.0293,-0.0292,-0.0291,0,0.0267,0.0296,0.0354,0.0411,0.0436,0.048,0.0552,0.0582,0.058,0.0601,0.0595,0.0498,0.035,0.0181,-0.0026,-0.0131,-0.0291,-0.0349,-0.0273,-0.0303,-0.0373,-0.0365,-0.0458,-0.0459,-0.046,-0.046,-0.0461,0,0.0276,0.0305,0.0388,0.0431,0.046,0.0529,0.058,0.0618,0.0651,0.0644,0.0651,0.0528,0.0441,0.0159,-0.0028,-0.0287,-0.0321,-0.0408,-0.0388,-0.0363,-0.0389,-0.038,-0.0371,-0.0462,-0.0462,-0.0462,-0.0462,0,0.029,0.0317,0.0368,0.0459,0.0525,0.0602,0.0674,0.0709,0.0748,0.0741,0.0702,0.0564,0.0392,0.0171,-0.003,-0.0215,-0.0351,-0.0416,-0.0416,-0.0397,-0.0368,-0.0391,-0.0382,-0.0464,-0.0464,-0.0464,-0.0464,0,0.0299,0.0335,0.0405,0.0489,0.0572,0.0655,0.0694,0.0738,0.078,0.0776,0.0756,0.0582,0.0479,0.0206,0.0021,-0.0157,-0.0207,-0.0262,-0.0271,-0.0271,-0.0175,-0.0108,-0.0154,0,0,0,0,0,0.0311,0.0361,0.043,0.0531,0.0612,0.0668,0.075,0.0779,0.0814,0.0802,0.079,0.0639,0.0373,0.0248,0.0071,-0.0012,-0.0253,-0.0227,-0.0325,-0.0476,-0.0473,-0.039,0,0,0,0,0,0,0.0322,0.0389,0.0432,0.055,0.062,0.072,0.0776,0.08,0.0794,0.0796,0.0656,0.0595,0.0329,0.0479,0.0069,0.0012,-0.0075,-0.0352,-0.0356,-0.0477,-0.0475,-0.0473,-0.0387,0,0,0,0,0]}]]